This demonstration page uses our WeatherBlox Daily Observations layout. Learn more.

Left ArrowRight Arrow

31.31129, -92.44514

Hourly Observations for October 1, 2022

Temp ( °F °C ) Dew Point ( °F °C ) Humidity (%) Winds ( mph kmh ) Pressure ( in mb ) Visibility ( mi km ) Precip ( " mm )
12:53 am 00:53 Clear 53 11.7 46 7.8 77 77 Calm 29.98 1015 10 16 0.00 0.00
1:53 am 01:53 Clear 51 10.6 46 7.8 83 83 WNW 3 6 29.97 1015 10 16 0.00 0.00
2:53 am 02:53 Clear 51 10.6 45 7.2 79 79 W 3 6 29.98 1015 10 16 0.00 0.00
3:53 am 03:53 Clear 51 10.6 48 8.9 89 89 NW 3 6 29.98 1015 10 16 0.00 0.00
4:53 am 04:53 Clear 50 10 43 6.1 77 77 Calm 29.99 1016 10 16 0.00 0.00
5:53 am 05:53 Clear 50 10 47 8.3 89 89 NW 5 7 30.01 1016 10 16 0.00 0.00
6:53 am 06:53 Clear 48 8.9 42 5.6 80 80 WNW 3 6 30.03 1017 10 16 0.00 0.00
7:53 am 07:53 Sunny 51 10.6 45 7.2 79 79 WNW 3 6 30.04 1017 10 16 0.00 0.00
8:53 am 08:53 Sunny 62 16.7 51 10.6 67 67 Calm 30.05 1018 10 16 0.00 0.00
9:53 am 09:53 Sunny 69 20.6 52 11.1 54 54 E 5 7 30.07 1018 10 16 0.00 0.00
10:53 am 10:53 Sunny 75 23.9 49 9.4 40 40 E 6 9 30.07 1018 10 16 0.00 0.00
11:53 am 11:53 Sunny 79 26.1 45 7.2 30 30 N 9 15 30.06 1018 10 16 0.00 0.00
12:53 pm 12:53 Sunny 80 26.7 45 7.2 29 29 N 9 15 30.05 1018 10 16 0.00 0.00
1:53 pm 13:53 Sunny 82 27.8 44 6.7 26 26 N 9 15 30.02 1017 10 16 0.00 0.00
2:53 pm 14:53 Sunny 83 28.3 45 7.2 26 26 NNE 8 13 29.99 1016 10 16 0.00 0.00
3:53 pm 15:53 Sunny 84 28.9 44 6.7 25 25 NE 9 15 29.98 1015 10 16 0.00 0.00
4:53 pm 16:53 Sunny 83 28.3 44 6.7 26 26 NE 9 15 29.98 1015 10 16 0.00 0.00
5:53 pm 17:53 Sunny 80 26.7 46 7.8 30 30 N 8 13 29.98 1015 10 16 0.00 0.00
6:53 pm 18:53 Sunny 74 23.3 48 8.9 40 40 NNE 5 7 30.00 1016 10 16 0.00 0.00
7:53 pm 19:53 Clear 68 20 51 10.6 55 55 NNE 5 7 30.01 1016 10 16 0.00 0.00
8:53 pm 20:53 Clear 61 16.1 50 10 67 67 NNE 5 7 30.03 1017 10 16 0.00 0.00
9:53 pm 21:53 Clear 56 13.3 47 8.3 72 72 N 3 6 30.04 1017 10 16 0.00 0.00
10:53 pm 22:53 Clear 58 14.4 46 7.8 65 65 Calm 30.05 1018 10 16 0.00 0.00
11:53 pm 23:53 Clear 55 12.8 47 8.3 74 74 WNW 3 6 30.06 1018 10 16 0.00 0.00

Powered by AerisWeather